Location: ??????
(41.3164°N, 22.6615°E)
Time: 22:43:22
(UTC+00:00)

Okean 1 Rocket - Pass Details

Date: 16 October 2021
Orbit: 607 x 633 km, 82.5° (Epoch: 26 November)

Event Time Altitude Azimuth Distance (km) Brightness Sun altitude
Rises 16:54:08 0° 202° (SSW) 2,852 6.8 -13.4°
Reaches altitude 10° 16:56:25 10° 209° (SSW) 1,952 6.0 -13.8°
Maximum altitude 17:00:33 43° 282° (WNW) 853 4.3 -14.6°
Drops below altitude 10° 17:04:42 10° 355° (N) 1,970 5.7 -15.4°
Sets 17:07:02 0° 2° (N) 2,881 6.5 -15.8°
